User: anonymous   Login
Location: Unspecified
(0.0000°N, 0.0000°E)
Time: 16:17:12
(UTC+00:00)
Language:

COSMOS 2437 - Orbit

View from above orbital plane
View from above orbital plane
View from above satellite
View from above satellite

Ground track
Ground track

The orbit data is extracted from the following two-line orbital elements,

1 32954U 08025B   18260.75219646  .00000030  00000-0  14265-3 0  9999
2 32954  82.5028 316.2272 0020685  23.2069 336.9940 12.42697387468153
Epoch (UTC): 17 September 2018 18:03:09
Eccentricity: 0.0020685
inclination: 82.5028°
perigee height: 1479 km
apogee height: 1511 km
right ascension of ascending node: 316.2272°
argument of perigee: 23.2069°
revolutions per day: 12.42697387
mean anomaly at epoch: 336.9940°
orbit number at epoch: 46815

The dashed part of the orbit path shows where the satellite is in the earth's shadow,  

DLR